When you browse on this site, cookies collect data to enhance your experience and personalize the content and advertising you see.
Visit our Privacy Policy to learn more. By continuing to use the site, you agree to this use of cookies and data.

Météo par heure à Birmingem

Ce jour, 13 Août, Jeudi

Heure Température Précipitation Vent Pression Humidité
00:00 +26°C° 0 mm 1 m/s 742 mmHg 82%
01:00 +26°C° 0.1 mm 1 m/s 742 mmHg 84%
02:00 +26°C° 0.1 mm 1 m/s 742 mmHg 85%
03:00 +23°C° 0.1 mm 0 m/s 741 mmHg 86%
04:00 +24°C° 0.4 mm 0 m/s 742 mmHg 87%
05:00 +24°C° 0.4 mm 0 m/s 742 mmHg 87%
06:00 +24°C° 0.4 mm 0 m/s 742 mmHg 87%
07:00 +25°C° 0.6 mm 0 m/s 742 mmHg 82%
08:00 +29°C° 0.6 mm 1 m/s 743 mmHg 77%
09:00 +30°C° 0.6 mm 1 m/s 743 mmHg 72%
10:00 +31°C° 0.2 mm 1 m/s 743 mmHg 69%
11:00 +31°C° 0.2 mm 1 m/s 742 mmHg 66%
12:00 +31°C° 0.2 mm 1 m/s 742 mmHg 62%
13:00 +31°C° 0 mm 1 m/s 742 mmHg 62%
14:00 +31°C° 0 mm 2 m/s 741 mmHg 63%
15:00 +31°C° 0 mm 2 m/s 741 mmHg 63%
16:00 +30°C° 0 mm 1 m/s 741 mmHg 65%
17:00 +30°C° 0 mm 1 m/s 741 mmHg 67%
18:00 +29°C° 0 mm 1 m/s 741 mmHg 69%
19:00 +28°C° 0.2 mm 1 m/s 741 mmHg 72%
20:00 +26°C° 0.2 mm 0 m/s 741 mmHg 75%
21:00 +25°C° 0.2 mm 0 m/s 741 mmHg 77%
22:00 +24°C° 0.7 mm 0 m/s 741 mmHg 80%
23:00 +24°C° 0.7 mm 0 m/s 741 mmHg 83%

Demain, 14 Août, Vendredi

Heure Température Précipitation Vent Pression Humidité
00:00 +25°C° 0.7 mm 1 m/s 741 mmHg 86%
01:00 +25°C° 0.8 mm 1 m/s 740 mmHg 87%
02:00 +25°C° 0.8 mm 1 m/s 740 mmHg 89%
03:00 +24°C° 0.8 mm 1 m/s 740 mmHg 91%
04:00 +25°C° 0.5 mm 1 m/s 740 mmHg 91%
05:00 +25°C° 0.5 mm 1 m/s 740 mmHg 92%
06:00 +25°C° 0.5 mm 1 m/s 740 mmHg 92%
07:00 +26°C° 0.8 mm 1 m/s 740 mmHg 86%
08:00 +28°C° 0.8 mm 2 m/s 740 mmHg 80%
09:00 +30°C° 0.8 mm 2 m/s 740 mmHg 74%
10:00 +31°C° 1 mm 2 m/s 740 mmHg 70%
11:00 +31°C° 1 mm 3 m/s 740 mmHg 67%
12:00 +33°C° 1 mm 3 m/s 740 mmHg 64%
13:00 +33°C° 0.2 mm 3 m/s 739 mmHg 62%
14:00 +34°C° 0.2 mm 3 m/s 739 mmHg 60%
15:00 +34°C° 0.2 mm 3 m/s 739 mmHg 58%
16:00 +33°C° 0.2 mm 3 m/s 739 mmHg 63%
17:00 +31°C° 0.2 mm 2 m/s 739 mmHg 68%
18:00 +30°C° 0.2 mm 2 m/s 739 mmHg 72%
19:00 +29°C° 0.1 mm 2 m/s 739 mmHg 76%
20:00 +28°C° 0.1 mm 2 m/s 739 mmHg 79%
21:00 +27°C° 0.1 mm 2 m/s 739 mmHg 82%
22:00 +27°C° 0.1 mm 2 m/s 739 mmHg 84%
23:00 +26°C° 0.1 mm 2 m/s 739 mmHg 86%

Après-demain, 15 Août, Samedi

Heure Température Précipitation Vent Pression Humidité
00:00 +26°C° 0.1 mm 2 m/s 739 mmHg 88%
01:00 +25°C° 0.1 mm 1 m/s 739 mmHg 90%
02:00 +25°C° 0.1 mm 1 m/s 739 mmHg 91%
03:00 +25°C° 0.1 mm 1 m/s 739 mmHg 93%
04:00 +25°C° 0 mm 1 m/s 739 mmHg 93%
05:00 +25°C° 0 mm 1 m/s 740 mmHg 92%
06:00 +25°C° 0 mm 1 m/s 740 mmHg 92%
07:00 +27°C° 0 mm 1 m/s 740 mmHg 84%
08:00 +28°C° 0 mm 2 m/s 741 mmHg 76%
09:00 +30°C° 0 mm 2 m/s 741 mmHg 67%
10:00 +31°C° 0 mm 2 m/s 741 mmHg 61%
11:00 +34°C° 0 mm 2 m/s 741 mmHg 56%
12:00 +35°C° 0 mm 2 m/s 740 mmHg 50%
13:00 +35°C° 0 mm 2 m/s 740 mmHg 47%
14:00 +36°C° 0 mm 2 m/s 740 mmHg 45%
15:00 +36°C° 0 mm 3 m/s 739 mmHg 43%
16:00 +34°C° 0 mm 2 m/s 739 mmHg 50%
17:00 +32°C° 0 mm 2 m/s 739 mmHg 57%
18:00 +30°C° 0 mm 2 m/s 739 mmHg 64%
19:00 +29°C° 0 mm 2 m/s 740 mmHg 66%
20:00 +28°C° 0 mm 2 m/s 740 mmHg 68%
21:00 +27°C° 0 mm 1 m/s 740 mmHg 71%
22:00 +26°C° 0 mm 1 m/s 740 mmHg 71%
23:00 +25°C° 0 mm 1 m/s 740 mmHg 72%

16 Août, Dimanche

Heure Température Précipitation Vent Pression Humidité
00:00 +25°C° 0 mm 1 m/s 740 mmHg 73%
01:00 +22°C° 0 mm 0 m/s 740 mmHg 75%
02:00 +22°C° 0 mm 0 m/s 740 mmHg 76%
03:00 +22°C° 0 mm 0 m/s 740 mmHg 78%
04:00 +22°C° 0 mm 0 m/s 740 mmHg 79%
05:00 +22°C° 0 mm 0 m/s 741 mmHg 80%
06:00 +22°C° 0 mm 0 m/s 741 mmHg 81%
07:00 +26°C° 0 mm 1 m/s 741 mmHg 73%
08:00 +28°C° 0 mm 1 m/s 742 mmHg 66%
09:00 +31°C° 0 mm 2 m/s 742 mmHg 59%
10:00 +32°C° 0 mm 2 m/s 741 mmHg 52%
11:00 +35°C° 0 mm 2 m/s 741 mmHg 45%
12:00 +36°C° 0 mm 2 m/s 741 mmHg 38%
13:00 +36°C° 0 mm 2 m/s 741 mmHg 40%
14:00 +36°C° 0 mm 3 m/s 740 mmHg 41%
15:00 +36°C° 0 mm 3 m/s 740 mmHg 42%
16:00 +34°C° 0 mm 3 m/s 740 mmHg 50%
17:00 +32°C° 0 mm 2 m/s 740 mmHg 59%
18:00 +30°C° 0 mm 2 m/s 740 mmHg 67%
19:00 +29°C° 0 mm 2 m/s 740 mmHg 71%
20:00 +28°C° 0 mm 2 m/s 740 mmHg 75%
21:00 +27°C° 0 mm 1 m/s 740 mmHg 79%
22:00 +26°C° 0 mm 1 m/s 740 mmHg 81%
23:00 +26°C° 0 mm 1 m/s 740 mmHg 83%

17 Août, Lundi

Heure Température Précipitation Vent Pression Humidité
00:00 +26°C° 0 mm 1 m/s 740 mmHg 84%
01:00 +25°C° 0 mm 1 m/s 740 mmHg 86%
02:00 +25°C° 0 mm 1 m/s 740 mmHg 87%
03:00 +25°C° 0 mm 1 m/s 740 mmHg 88%
04:00 +25°C° 0 mm 1 m/s 740 mmHg 88%
05:00 +25°C° 0 mm 1 m/s 740 mmHg 87%
06:00 +25°C° 0 mm 1 m/s 740 mmHg 87%
07:00 +27°C° 0 mm 1 m/s 741 mmHg 78%
08:00 +29°C° 0 mm 1 m/s 741 mmHg 68%
09:00 +31°C° 0 mm 1 m/s 741 mmHg 59%
10:00 +32°C° 0 mm 2 m/s 741 mmHg 53%
11:00 +35°C° 0 mm 2 m/s 741 mmHg 47%
12:00 +36°C° 0 mm 2 m/s 741 mmHg 42%
13:00 +35°C° 0 mm 2 m/s 740 mmHg 44%
14:00 +35°C° 0 mm 3 m/s 740 mmHg 46%
15:00 +35°C° 0 mm 3 m/s 739 mmHg 48%
16:00 +33°C° 0.4 mm 3 m/s 739 mmHg 56%
17:00 +30°C° 0.4 mm 2 m/s 739 mmHg 63%
18:00 +29°C° 0.4 mm 2 m/s 739 mmHg 71%
19:00 +28°C° 0.2 mm 2 m/s 739 mmHg 75%
20:00 +27°C° 0.2 mm 2 m/s 740 mmHg 78%
21:00 +26°C° 0.2 mm 2 m/s 740 mmHg 82%
22:00 +25°C° 0 mm 2 m/s 740 mmHg 83%
23:00 +25°C° 0 mm 2 m/s 739 mmHg 85%

18 Août, Mardi

Heure Température Précipitation Vent Pression Humidité
00:00 +24°C° 0 mm 2 m/s 739 mmHg 86%
01:00 +24°C° 0 mm 2 m/s 739 mmHg 87%
02:00 +23°C° 0 mm 1 m/s 739 mmHg 89%
03:00 +23°C° 0 mm 1 m/s 739 mmHg 90%
04:00 +23°C° 0 mm 1 m/s 739 mmHg 89%
05:00 +23°C° 0 mm 1 m/s 739 mmHg 89%
06:00 +23°C° 0 mm 1 m/s 739 mmHg 89%
07:00 +25°C° 0 mm 1 m/s 740 mmHg 79%
08:00 +27°C° 0 mm 2 m/s 740 mmHg 70%
09:00 +29°C° 0 mm 2 m/s 740 mmHg 60%
10:00 +31°C° 0 mm 2 m/s 740 mmHg 54%
11:00 +32°C° 0 mm 2 m/s 740 mmHg 48%
12:00 +34°C° 0 mm 3 m/s 740 mmHg 43%
13:00 +34°C° 0 mm 3 m/s 739 mmHg 41%
14:00 +34°C° 0 mm 3 m/s 739 mmHg 40%
15:00 +35°C° 0 mm 3 m/s 738 mmHg 39%
16:00 +33°C° 0 mm 3 m/s 738 mmHg 45%
17:00 +30°C° 0 mm 3 m/s 738 mmHg 52%
18:00 +28°C° 0 mm 3 m/s 738 mmHg 58%
19:00 +27°C° 0 mm 2 m/s 738 mmHg 62%
20:00 +26°C° 0 mm 2 m/s 739 mmHg 67%
21:00 +25°C° 0 mm 2 m/s 739 mmHg 71%
22:00 +24°C° 0 mm 2 m/s 739 mmHg 74%
23:00 +24°C° 0 mm 2 m/s 739 mmHg 77%
Voir plus